Regional Weather Roundup
Issued by NWS Burlington, VT

Home | Current Version | Previous Version | Text Only | Print | Product List | Glossary On
Versions: 1 2 3 4 5 6 7 8 9 10 11 12 13 14 15 16 17 18 19 20 21 22 23 24 25 26 27 28 29 30 31 32 33 34 35 36 37 38 39 40 41 42 43 44 45 46 47 48 49 50
000
ASUS41 KBTV 040030
RWRBTV
VERMONT REGIONAL WEATHER ROUNDUP
NATIONAL WEATHER SERVICE BURLINGTON VT
800 PM EDT THU SEP 03 2015

NOTE: "FAIR" INDICATES FEW OR NO CLOUDS BELOW 12,000 FEET WITH NO
SIGNIFICANT WEATHER AND/OR OBSTRUCTIONS TO VISIBILITY.

* THESE REPORTS ARE NOT UNDER NWS QUALITY CONTROL AND/OR DO NOT
  REPORT WEATHER SUCH AS PRECIPITATION AND FOG.

VTZ001>019-040100-
_____VERMONT_____


CITY           SKY/WX    TMP DP  RH WIND       PRES   REMARKS
BURLINGTON     MOCLDY    73  54  51 N3        29.95R
6HR MIN TEMP:  73; 6HR MAX TEMP:  84;

MONTPELIER     PTCLDY    70  59  68 CALM      30.00R
6HR MIN TEMP:  70; 6HR MAX TEMP:  81;

MORRISVILLE    PTCLDY    68  59  73 NW3       29.98R
6HR MIN TEMP:  68; 6HR MAX TEMP:  85;

ST. JOHNSBURY*   N/A     71  62  73 MISG      29.93R
6HR MIN TEMP:  71; 6HR MAX TEMP:  83;

LYNDONVILLE*   FAIR      67  52  59 W5        30.00R
6HR MIN TEMP:  68; 6HR MAX TEMP:  80;

MIDDLEBURY*    FAIR      72  64  78 N3        29.94R
6HR MIN TEMP:  73; 6HR MAX TEMP:  85;

RUTLAND*       MOCLDY    73 -20   2 N3        29.95R
SPRINGFIELD    MOCLDY    72  70  93 CALM      29.92R
6HR MIN TEMP:  72; 6HR MAX TEMP:  83; 6HR PCP: TRACE;

HIGHGATE*      FAIR      67  53  61 NE6       29.96R
6HR MIN TEMP:  65; 6HR MAX TEMP:  81;

NEWPORT*       FAIR      63  54  71 CALM      29.99R
6HR MIN TEMP:  62; 6HR MAX TEMP:  78;

BENNINGTON     PTCLDY    72  70  93 S3        29.92R FOG
6HR MIN TEMP:  72; 6HR MAX TEMP:  87;

MT. MANSFIELD*   N/A     57 N/A N/A SE7         N/A

_____LAKE CHAMPLAIN_____


CITY           SKY/WX    TMP DP  RH WIND       PRES   REMARKS
COLCHESTER RF*   N/A    N/A N/A N/A N8          N/A
DIAMOND ISL*     N/A     75  61  60 NW14        N/A

$$

NYZ007-026>031-035-052-083-040100-
_____NORTHERN NEW YORK_____


CITY           SKY/WX    TMP DP  RH WIND       PRES   REMARKS
PLATTSBURGH    LGT RAIN  69  62  78 CALM      29.95R
6HR MIN TEMP:  69; 6HR MAX TEMP:  80; 6HR PCP: TRACE;

SARANAC LAKE   CLEAR     66  58  75 CALM      29.99S
6HR MIN TEMP:  66; 6HR MAX TEMP:  82;

MASSENA        CLEAR     70  66  87 CALM      29.96R
6HR MIN TEMP:  70; 6HR MAX TEMP:  84;

OGDENSBURG*    CLEAR     66  64  94 CALM      29.97R
POTSDAM*       CLEAR     66  66 100 CALM      29.97R
WATERTOWN      CLEAR     70  65  84 CALM      29.94R
6HR MIN TEMP:  70; 6HR MAX TEMP:  84;

FT DRUM        CLEAR     72  66  83 NE2       29.95S
6HR MIN TEMP:  72; 6HR MAX TEMP:  80;

ALBANY         MOCLDY    74  70  87 N6        29.90R
6HR MIN TEMP:  72; 6HR MAX TEMP:  89; 6HR PCP:  0.65;

GLENS FALLS    PTCLDY    75  64  68 N3        29.91R
6HR MIN TEMP:  75; 6HR MAX TEMP:  86; 6HR PCP: TRACE;


$$
NHZ002-005-011-040100-
_____NEW HAMPSHIRE_____


CITY           SKY/WX    TMP DP  RH WIND       PRES   REMARKS
LEBANON        MOCLDY    72  66  81 CALM      29.91R
6HR MIN TEMP:  72; 6HR MAX TEMP:  89;

KEENE          MOCLDY    73  66  78 CALM      29.91R
6HR MIN TEMP:  73; 6HR MAX TEMP:  88;

MT WASHINGTON  MOCLDY    54  45  71 NW15        N/A
6HR MIN TEMP:  52; 6HR MAX TEMP:  60;

PLYMOUTH       FAIR      73  66  79 CALM      29.91R
6HR MIN TEMP:  71; 6HR MAX TEMP:  86;

WHITEFIELD     PTCLDY    67  62  84 CALM      29.96R
6HR MIN TEMP:  67; 6HR MAX TEMP:  81;


$$

_____REGIONAL QUEBEC LOCATIONS_____


CITY           SKY/WX    TMP DP  RH WIND       PRES   REMARKS
MONTREAL       PTCLDY    73  50  43 E6        29.96R
QUEBEC CITY    PTCLDY    66  52  59 NE10      29.99R
SHERBROOKE     CLEAR     66  54  63 NW3       29.98R

_____REGIONAL ONTARIO LOCATIONS_____


CITY           SKY/WX    TMP DP  RH WIND       PRES   REMARKS
OTTAWA         PTCLDY    73  59  60 N6        29.98R

______KEY______
VSB  - VISIBILITY IN MILES
WCI  - WIND CHILL INDEX
HX   - HEAT INDEX
$$
NNNN



USA.gov is the U.S. government's official web portal to all federal, state and local government web resources and services.